Regional Weather Roundup
Issued by NWS State College, PA

Home | Current Version | Previous Version | Text Only | Print | Product List | Glossary Off
Versions: 1 2 3 4 5 6 7 8 9 10 11 12 13 14 15 16 17 18 19 20 21 22 23 24 25 26 27 28 29 30 31 32 33 34 35 36 37 38 39 40 41 42 43 44 45 46 47 48 49 50

547
ASUS41 KCTP 231110
RWRCTP

REGIONAL WEATHER ROUNDUP
NATIONAL WEATHER SERVICE STATE COLLEGE PA
700 AM EDT MON OCT 23 2017

Note: "fair" indicates few or no clouds below 12,000 feet with no
significant weather and/or obstructions to visibility.

* = STATION THAT DOES NOT REPORT PRECIPITATION /E.G. RAIN...SNOW...ETC/
    THUNDER OR FOG.

PAZ002>004-007>009-013>016-020>023-029>032-231200-
WESTERN PENNSYLVANIA

CITY           SKY/WX    TMP DP  RH WIND       PRES   REMARKS
ERIE           MOCLDY    62  51  67 S16       30.04F
MEADVILLE      PTCLDY    58  52  80 VRB6      30.07F
FRANKLIN*      PTCLDY    58  52  80 SE8       30.10F
NEW CASTLE     FAIR      59  52  77 VRB3      30.07F
BEAVER COUNTY  NOT AVBL
BUTLER*        MOCLDY    59  52  77 E9        30.09F
PITTSBURGH INT MOCLDY    60  52  74 SE8       30.08F
PITTSBURGH     CLOUDY    61  50  67 SE8       30.09S
INDIANA*       CLEAR     61  54  77 S9G17     30.16S
LATROBE        CLEAR     61  54  77 SE6       30.12F
WASHINGTON CO* CLOUDY    59  50  72 SE3       30.11F
$$

PAZ004>006-010>012-017>019-024>028-033>037-041-042-045-046-049>053-231200-
CENTRAL PENNSYLVANIA

CITY           SKY/WX    TMP DP  RH WIND       PRES   REMARKS
BRADFORD       CLOUDY    55  52  89 SE9       30.15F
DUBOIS         CLEAR     55  50  83 SE13      30.14F
CLEARFIELD     CLEAR     51  50  96 N5        30.18F
JOHNSTOWN      PTCLDY    56  52  86 S10       30.17F
ALTOONA        CLOUDY    59  54  83 S8        30.20F
STATE COLLEGE  PTCLDY    55  50  82 CALM      30.21F
WILLIAMSPORT   CLOUDY    59  53  80 CALM      30.22F
SELINSGROVE    CLOUDY    54  52  93 CALM      30.24F
FT INDIANTOWN  CLOUDY    57  57 100 CALM      30.25F FOG
CAPITAL CITY   CLOUDY    59  56  89 S5        30.25F FOG
HARRISBURG     CLOUDY    59  58  96 SE3       30.25F FOG
YORK           FOG       56  56 100 SE3       30.25F VSB 1/2
$$

PAZ038>040-043-044-047-048-054-055-060>062-067>071-231200-
EASTERN PENNSYLVANIA

CITY           SKY/WX    TMP DP  RH WIND       PRES   REMARKS
SCRANTON       CLOUDY    56  53  90 CALM      30.27F
MOUNT POCONO   CLOUDY    55  55 100 S8        30.29F FOG
ALLENTOWN      CLOUDY    61  57  87 E6        30.28F
QUAKERTOWN*    CLOUDY    57  57 100 CALM      30.30S VSB 3/4
READING        CLOUDY    56  56 100 CALM      30.26F
LANCASTER      CLOUDY    58  58 100 E3        30.26F FOG
COATESVILLE    FOG       61  61 100 CALM      30.28F VSB<1/4
POTTSTOWN      FOG       58  58 100 E3        30.29F VSB 1/4
BLUE BELL      CLOUDY    59  59 100 CALM      30.30S VSB 1/4
DOYLESTOWN     FOG       57  57 100 CALM      30.28F VSB 1
WILLOW GROVE   NOT AVBL
NORTH PHILA    CLOUDY    63  60  90 NE3       30.30S FOG
PHILADELPHIA   CLOUDY    61  60  97 NE3       30.28F FOG
$$




USA.gov is the U.S. government's official web portal to all federal, state and local government web resources and services.